This demonstration page uses our WeatherBlox Daily Observations layout. Learn more.

Left ArrowRight Arrow

Hourly Observations for December 2, 2022

Temp ( °F °C ) Dew Point ( °F °C ) Humidity (%) Winds ( mph kmh ) Pressure ( in mb ) Visibility ( mi km ) Precip ( " mm )
12:59 am 00:59 Clear 33 0.6 30 -1.1 88 88 Calm 30.52 1034 10 16 0.00 0.00
1:59 am 01:59 Clear 32 0 30 -1.1 92 92 S 3 6 30.53 1034 10 16 0.00 0.00
2:59 am 02:59 Clear 32 0 29 -1.7 88 88 Calm 30.54 1034 10 16 0.00 0.00
3:59 am 03:59 Clear 31 -0.6 29 -1.7 92 92 Calm 30.53 1034 10 16 0.00 0.00
4:59 am 04:59 Clear 32 0 31 -0.6 96 96 Calm 30.54 1034 10 16 0.00 0.00
5:59 am 05:59 Clear 32 0 31 -0.6 96 96 Calm 30.56 1035 9 14 0.00 0.00
6:59 am 06:59 Mostly Clear 32 0 32 0 100 100 Calm 30.58 1036 9 14 0.00 0.00
7:59 am 07:59 Mostly Sunny 34 1.1 33 0.6 96 96 Calm 30.59 1036 10 16 0.00 0.00
8:59 am 08:59 Mostly Sunny 45 7.2 38 3.3 76 76 Calm 30.60 1036 10 16 0.00 0.00
9:59 am 09:59 Mostly Sunny 49 9.4 31 -0.6 50 50 ESE 3 6 30.60 1036 10 16 0.00 0.00
10:59 am 10:59 Mostly Sunny 51 10.6 32 0 48 48 S 6 9 30.58 1036 10 16 0.00 0.00
11:59 am 11:59 Mostly Sunny 53 11.7 33 0.6 46 46 VRB 6 9 30.54 1034 10 16 0.00 0.00
12:59 pm 12:59 Mostly Sunny 55 12.8 33 0.6 43 43 SSW 8 13 30.51 1033 10 16 0.00 0.00
1:59 pm 13:59 Mostly Sunny 56 13.3 31 -0.6 38 38 S 7 11 30.49 1032 10 16 0.00 0.00
2:59 pm 14:59 Partly Cloudy 57 13.9 31 -0.6 37 37 S 7 11 30.48 1032 10 16 0.00 0.00
3:59 pm 15:59 Partly Cloudy 57 13.9 34 1.1 42 42 S 5 7 30.47 1032 10 16 0.00 0.00
4:59 pm 16:59 Partly Cloudy 53 11.7 38 3.3 56 56 S 5 7 30.48 1032 10 16 0.00 0.00
5:59 pm 17:59 Mostly Cloudy 53 11.7 39 3.9 59 59 SSE 6 9 30.49 1033 10 16 0.00 0.00
6:59 pm 18:59 Mostly Cloudy 53 11.7 41 5 63 63 SSE 8 13 30.49 1033 10 16 0.00 0.00
7:59 pm 19:59 Partly Cloudy 52 11.1 41 5 66 66 SSE 8 13 30.48 1032 10 16 0.00 0.00
8:59 pm 20:59 Partly Cloudy 51 10.6 45 7.2 79 79 S 8 13 30.47 1032 10 16 0.00 0.00
9:59 pm 21:59 Mostly Cloudy 51 10.6 47 8.3 86 86 S 8 13 30.46 1032 10 16 0.00 0.00
10:59 pm 22:59 Mostly Cloudy 52 11.1 47 8.3 83 83 S 7 11 30.44 1031 10 16 0.00 0.00
11:59 pm 23:59 Mostly Cloudy 52 11.1 49 9.4 89 89 S 6 9 30.44 1031 10 16 0.00 0.00

Powered by AerisWeather